Time,TemperatureF,DewpointF,PressureIn,WindDirection,WindDirectionDegrees,WindSpeedMPH,WindSpeedGustMPH,Humidity,HourlyPrecipIn,Conditions,Clouds,dailyrainin,SoftwareType,DateUTC
2013-05-11 00:01:00,57.0,50.4,30.01,NNE,27,3.0,8.0,12,0.00,,,0.12,meteohub,2013-05-11 05:01:00,
2013-05-11 00:06:00,57.0,50.9,30.01,NE,35,4.0,8.0,12,0.00,,,0.00,meteohub,2013-05-11 05:06:00,
2013-05-11 00:11:00,56.8,50.9,30.01,North,353,4.0,8.0,12,0.00,,,0.00,meteohub,2013-05-11 05:11:00,
2013-05-11 00:16:00,56.8,50.7,30.01,NNW,340,5.0,7.0,12,0.00,,,0.00,meteohub,2013-05-11 05:16:00,
2013-05-11 00:21:00,56.8,50.7,30.01,North,353,3.0,7.0,12,0.00,,,0.00,meteohub,2013-05-11 05:21:00,
2013-05-11 00:26:00,56.8,50.7,30.01,NE,40,4.0,6.0,12,0.00,,,0.00,meteohub,2013-05-11 05:26:00,
2013-05-11 00:31:00,56.8,50.7,30.01,North,0,5.0,7.0,12,0.00,,,0.00,meteohub,2013-05-11 05:31:00,
2013-05-11 00:37:00,56.7,50.0,30.01,NNW,341,3.0,7.0,12,0.00,,,0.00,meteohub,2013-05-11 05:37:00,
2013-05-11 00:42:00,56.7,50.0,30.01,ENE,63,0.0,7.0,12,0.00,,,0.00,meteohub,2013-05-11 05:42:00,
2013-05-11 00:47:00,56.7,50.0,30.01,NNE,19,2.0,6.0,12,0.00,,,0.00,meteohub,2013-05-11 05:47:00,
2013-05-11 00:52:00,56.7,50.0,30.01,NNE,21,3.0,5.0,12,0.00,,,0.00,meteohub,2013-05-11 05:52:00,
2013-05-11 00:57:00,56.7,50.0,30.01,North,6,2.0,5.0,15,0.00,,,0.00,meteohub,2013-05-11 05:57:00,
2013-05-11 01:02:00,56.7,49.8,30.01,North,0,3.0,5.0,15,0.00,,,0.00,meteohub,2013-05-11 06:02:00,
2013-05-11 01:07:00,56.7,49.8,30.01,NNE,15,4.0,6.0,15,0.00,,,0.00,meteohub,2013-05-11 06:07:00,
2013-05-11 01:12:00,56.7,49.3,30.04,North,0,4.0,6.0,15,0.00,,,0.00,meteohub,2013-05-11 06:12:00,
2013-05-11 01:17:00,56.7,49.3,30.04,NE,47,3.0,6.0,15,0.00,,,0.00,meteohub,2013-05-11 06:17:00,
2013-05-11 01:22:00,56.7,49.6,30.04,North,0,0.0,6.0,15,0.00,,,0.00,meteohub,2013-05-11 06:22:00,
2013-05-11 01:27:00,56.7,49.1,30.04,North,353,3.0,6.0,15,0.00,,,0.00,meteohub,2013-05-11 06:27:00,
2013-05-11 01:32:00,56.5,49.1,30.04,NE,35,4.0,4.0,15,0.00,,,0.00,meteohub,2013-05-11 06:32:00,
2013-05-11 01:37:00,56.5,49.6,30.04,NNE,21,0.0,5.0,15,0.00,,,0.00,meteohub,2013-05-11 06:37:00,
2013-05-11 01:42:00,56.5,49.6,30.04,NE,35,4.0,5.0,15,0.00,,,0.00,meteohub,2013-05-11 06:42:00,
2013-05-11 01:47:00,56.5,49.6,30.04,North,357,2.0,5.0,15,0.00,,,0.00,meteohub,2013-05-11 06:47:00,
2013-05-11 01:52:00,56.5,49.6,30.04,North,357,0.0,5.0,15,0.00,,,0.00,meteohub,2013-05-11 06:52:00,
2013-05-11 01:57:00,56.3,49.6,30.04,North,357,0.0,5.0,15,0.00,,,0.00,meteohub,2013-05-11 06:57:00,
2013-05-11 02:03:00,56.3,49.6,30.04,North,357,0.0,4.0,15,0.00,,,0.00,meteohub,2013-05-11 07:03:00,
2013-05-11 02:08:00,56.3,49.6,30.04,North,357,0.0,3.0,15,0.00,,,0.00,meteohub,2013-05-11 07:08:00,
2013-05-11 02:13:00,56.3,49.6,30.04,North,357,0.0,3.0,15,0.00,,,0.00,meteohub,2013-05-11 07:13:00,
2013-05-11 02:18:00,56.3,49.6,30.04,North,357,0.0,0.0,15,0.00,,,0.00,meteohub,2013-05-11 07:18:00,
2013-05-11 02:23:00,56.3,49.6,30.04,NNW,335,0.0,0.0,15,0.00,,,0.00,meteohub,2013-05-11 07:23:00,
2013-05-11 02:28:00,56.3,49.6,30.04,North,357,5.0,0.0,15,0.00,,,0.00,meteohub,2013-05-11 07:28:00,
2013-05-11 02:33:00,56.3,49.6,30.04,North,4,0.0,5.0,15,0.00,,,0.00,meteohub,2013-05-11 07:33:00,
2013-05-11 02:38:00,56.3,49.6,30.04,North,3,4.0,5.0,15,0.00,,,0.00,meteohub,2013-05-11 07:38:00,
2013-05-11 02:43:00,56.3,49.6,30.04,North,0,0.0,5.0,15,0.00,,,0.00,meteohub,2013-05-11 07:43:00,
2013-05-11 02:48:00,56.1,50.2,30.04,North,353,4.0,4.0,17,0.00,,,0.00,meteohub,2013-05-11 07:48:00,
2013-05-11 02:53:00,56.1,50.2,30.04,NNE,16,2.0,5.0,17,0.00,,,0.00,meteohub,2013-05-11 07:53:00,
2013-05-11 02:58:00,56.1,50.2,30.01,NNE,28,5.0,6.0,17,0.00,,,0.00,meteohub,2013-05-11 07:58:00,
2013-05-11 03:03:00,56.1,50.2,30.01,North,2,3.0,6.0,17,0.00,,,0.00,meteohub,2013-05-11 08:03:00,
2013-05-11 03:08:00,56.1,50.2,30.01,NNW,345,4.0,6.0,17,0.00,,,0.00,meteohub,2013-05-11 08:08:00,
2013-05-11 03:13:00,55.9,50.2,30.01,WNW,294,4.0,5.0,17,0.00,,,0.00,meteohub,2013-05-11 08:13:00,
2013-05-11 03:18:00,55.9,50.0,30.01,North,0,4.0,4.0,17,0.00,,,0.00,meteohub,2013-05-11 08:18:00,
2013-05-11 03:24:00,55.9,50.0,30.01,North,353,3.0,4.0,17,0.00,,,0.00,meteohub,2013-05-11 08:24:00,
2013-05-11 03:29:00,55.9,50.0,30.01,North,357,0.0,5.0,17,0.00,,,0.00,meteohub,2013-05-11 08:29:00,
2013-05-11 03:34:00,55.8,50.0,30.01,NNW,335,0.0,5.0,17,0.00,,,0.00,meteohub,2013-05-11 08:34:00,
2013-05-11 03:39:00,55.8,50.0,30.01,NW,317,0.0,5.0,20,0.00,,,0.00,meteohub,2013-05-11 08:39:00,
2013-05-11 03:44:00,55.8,49.8,30.01,NNW,338,2.0,4.0,20,0.00,,,0.00,meteohub,2013-05-11 08:44:00,
2013-05-11 03:49:00,55.8,49.8,30.01,North,353,3.0,4.0,20,0.00,,,0.00,meteohub,2013-05-11 08:49:00,
2013-05-11 03:54:00,55.6,49.8,30.01,NW,320,3.0,4.0,22,0.00,,,0.00,meteohub,2013-05-11 08:54:00,
2013-05-11 03:59:00,55.6,49.8,30.01,NNW,342,2.0,5.0,22,0.00,,,0.00,meteohub,2013-05-11 08:59:00,
2013-05-11 04:04:00,55.6,49.6,30.01,NW,320,3.0,5.0,25,0.00,,,0.00,meteohub,2013-05-11 09:04:00,
2013-05-11 04:09:00,55.6,49.6,30.01,WNW,298,0.0,5.0,25,0.00,,,0.00,meteohub,2013-05-11 09:09:00,
2013-05-11 04:14:00,55.6,49.6,30.01,North,0,0.0,6.0,25,0.00,,,0.00,meteohub,2013-05-11 09:14:00,
2013-05-11 04:19:00,55.6,49.6,30.01,WNW,298,0.0,6.0,25,0.00,,,0.00,meteohub,2013-05-11 09:19:00,
2013-05-11 04:24:00,55.6,49.5,30.01,NNW,339,3.0,6.0,25,0.00,,,0.00,meteohub,2013-05-11 09:24:00,
2013-05-11 04:29:00,55.6,49.5,30.01,NNW,339,0.0,4.0,25,0.00,,,0.00,meteohub,2013-05-11 09:29:00,
2013-05-11 04:34:00,55.6,49.5,30.01,North,0,4.0,4.0,25,0.00,,,0.00,meteohub,2013-05-11 09:34:00,
2013-05-11 04:39:00,55.4,49.5,30.01,NNE,23,3.0,4.0,26,0.00,,,0.00,meteohub,2013-05-11 09:39:00,
2013-05-11 04:44:00,55.4,49.5,30.01,North,4,3.0,6.0,26,0.00,,,0.00,meteohub,2013-05-11 09:44:00,
2013-05-11 04:50:00,55.4,49.3,30.01,North,357,0.0,6.0,26,0.00,,,0.00,meteohub,2013-05-11 09:50:00,
2013-05-11 04:55:00,55.2,49.3,30.01,NW,305,0.0,6.0,26,0.00,,,0.00,meteohub,2013-05-11 09:55:00,
2013-05-11 05:00:00,55.0,49.3,30.01,North,353,0.0,5.0,26,0.00,,,0.00,meteohub,2013-05-11 10:00:00,
2013-05-11 05:05:00,54.9,49.3,30.01,North,4,0.0,2.0,26,0.00,,,0.00,meteohub,2013-05-11 10:05:00,
2013-05-11 05:10:00,54.7,49.1,30.01,North,4,0.0,2.0,26,0.00,,,0.00,meteohub,2013-05-11 10:10:00,
2013-05-11 05:15:00,54.5,49.1,30.01,North,4,0.0,0.0,26,0.00,,,0.00,meteohub,2013-05-11 10:15:00,
2013-05-11 05:20:00,54.3,49.1,30.01,North,4,0.0,0.0,25,0.00,,,0.00,meteohub,2013-05-11 10:20:00,
2013-05-11 05:25:00,54.0,49.1,30.01,North,0,0.0,0.0,26,0.00,,,0.00,meteohub,2013-05-11 10:25:00,
2013-05-11 05:30:00,53.8,48.9,30.01,North,0,0.0,0.0,25,0.00,,,0.00,meteohub,2013-05-11 10:30:00,
2013-05-11 05:35:00,53.4,48.9,30.01,North,0,0.0,0.0,26,0.00,,,0.00,meteohub,2013-05-11 10:35:00,
2013-05-11 05:40:00,53.1,48.9,30.01,North,0,0.0,0.0,26,0.00,,,0.00,meteohub,2013-05-11 10:40:00,
2013-05-11 05:45:00,52.7,48.9,30.01,North,0,0.0,0.0,26,0.00,,,0.00,meteohub,2013-05-11 10:45:00,
2013-05-11 05:50:00,52.5,48.9,30.01,North,0,0.0,0.0,26,0.00,,,0.00,meteohub,2013-05-11 10:50:00,
2013-05-11 05:55:00,52.3,48.9,30.01,North,0,0.0,0.0,26,0.00,,,0.00,meteohub,2013-05-11 10:55:00,
2013-05-11 06:00:00,52.2,48.7,30.01,North,0,0.0,0.0,26,0.00,,,0.00,meteohub,2013-05-11 11:00:00,
2013-05-11 06:05:00,52.0,48.7,30.01,North,0,0.0,0.0,26,0.00,,,0.00,meteohub,2013-05-11 11:05:00,
2013-05-11 06:11:00,51.8,48.7,30.01,North,0,0.0,0.0,26,0.00,,,0.00,meteohub,2013-05-11 11:11:00,
2013-05-11 06:16:00,51.8,48.7,30.01,North,0,0.0,0.0,26,0.00,,,0.00,meteohub,2013-05-11 11:16:00,
2013-05-11 06:21:00,51.6,48.7,30.01,North,0,0.0,0.0,27,0.00,,,0.00,meteohub,2013-05-11 11:21:00,
2013-05-11 06:26:00,51.4,48.7,30.01,North,0,0.0,0.0,27,0.00,,,0.00,meteohub,2013-05-11 11:26:00,
2013-05-11 06:31:00,51.4,48.7,30.01,North,0,0.0,0.0,27,0.00,,,0.00,meteohub,2013-05-11 11:31:00,
2013-05-11 06:36:00,51.4,48.7,30.01,North,0,0.0,0.0,27,0.00,,,0.00,meteohub,2013-05-11 11:36:00,
2013-05-11 06:42:00,51.6,48.7,30.01,North,0,0.0,0.0,28,0.00,,,0.00,meteohub,2013-05-11 11:42:00,
2013-05-11 06:47:00,52.0,48.6,30.01,North,0,0.0,0.0,28,0.00,,,0.00,meteohub,2013-05-11 11:47:00,
2013-05-11 06:52:00,52.2,48.6,30.01,North,0,0.0,0.0,28,0.00,,,0.00,meteohub,2013-05-11 11:52:00,
2013-05-11 06:57:00,52.5,48.6,30.01,North,0,0.0,0.0,29,0.00,,,0.00,meteohub,2013-05-11 11:57:00,
2013-05-11 07:02:00,52.9,48.6,30.01,North,0,0.0,0.0,29,0.00,,,0.00,meteohub,2013-05-11 12:02:00,
2013-05-11 07:07:00,53.4,48.6,30.01,North,0,0.0,0.0,29,0.00,,,0.00,meteohub,2013-05-11 12:07:00,
2013-05-11 07:12:00,54.0,48.6,30.01,North,0,0.0,0.0,30,0.00,,,0.00,meteohub,2013-05-11 12:12:00,
2013-05-11 07:17:00,54.5,48.4,30.01,NW,319,0.0,0.0,30,0.00,,,0.00,meteohub,2013-05-11 12:17:00,
2013-05-11 07:22:00,54.7,48.4,30.01,WNW,302,0.0,4.0,31,0.00,,,0.00,meteohub,2013-05-11 12:22:00,
2013-05-11 07:27:00,55.0,48.4,30.04,NW,308,0.0,6.0,32,0.00,,,0.00,meteohub,2013-05-11 12:27:00,
2013-05-11 07:32:00,55.4,48.4,30.04,NNE,12,0.0,6.0,32,0.00,,,0.00,meteohub,2013-05-11 12:32:00,
2013-05-11 07:38:00,55.8,48.4,30.04,WNW,292,0.0,4.0,32,0.00,,,0.00,meteohub,2013-05-11 12:38:00,
2013-05-11 07:43:00,55.8,48.4,30.04,SW,221,2.0,4.0,32,0.00,,,0.00,meteohub,2013-05-11 12:43:00,
2013-05-11 07:48:00,55.9,48.4,30.04,NW,317,4.0,5.0,33,0.00,,,0.00,meteohub,2013-05-11 12:48:00,
2013-05-11 07:53:00,56.3,48.4,30.04,WNW,298,0.0,5.0,32,0.00,,,0.00,meteohub,2013-05-11 12:53:00,
2013-05-11 07:58:00,56.5,48.9,30.04,WNW,286,3.0,5.0,32,0.00,,,0.00,meteohub,2013-05-11 12:58:00,
2013-05-11 08:03:00,56.5,48.9,30.04,WNW,294,4.0,5.0,30,0.00,,,0.00,meteohub,2013-05-11 13:03:00,
2013-05-11 08:08:00,56.8,48.9,30.04,NNW,329,2.0,6.0,29,0.00,,,0.00,meteohub,2013-05-11 13:08:00,
2013-05-11 08:13:00,57.0,49.1,30.04,North,357,0.0,6.0,27,0.00,,,0.00,meteohub,2013-05-11 13:13:00,
2013-05-11 08:18:00,57.2,49.1,30.04,NNE,16,4.0,6.0,26,0.00,,,0.00,meteohub,2013-05-11 13:18:00,
2013-05-11 08:23:00,57.7,49.1,30.04,NW,324,3.0,6.0,25,0.00,,,0.00,meteohub,2013-05-11 13:23:00,
2013-05-11 08:28:00,58.1,49.1,30.04,NNE,21,3.0,6.0,24,0.00,,,0.00,meteohub,2013-05-11 13:28:00,
2013-05-11 08:33:00,58.6,49.1,30.04,WNW,300,5.0,6.0,22,0.00,,,0.00,meteohub,2013-05-11 13:33:00,
2013-05-11 08:38:00,58.5,49.3,30.04,WSW,257,5.0,6.0,19,0.00,,,0.00,meteohub,2013-05-11 13:38:00,
2013-05-11 08:43:00,58.1,49.3,30.04,West,259,3.0,5.0,17,0.00,,,0.00,meteohub,2013-05-11 13:43:00,
2013-05-11 08:49:00,58.3,48.7,30.04,NNW,327,4.0,5.0,17,0.00,,,0.00,meteohub,2013-05-11 13:49:00,
2013-05-11 08:54:00,58.5,48.7,30.04,North,11,5.0,5.0,14,0.00,,,0.00,meteohub,2013-05-11 13:54:00,
2013-05-11 08:59:00,58.8,48.9,30.04,SW,219,4.0,5.0,14,0.00,,,0.00,meteohub,2013-05-11 13:59:00,
2013-05-11 09:04:00,59.2,48.9,30.04,NNW,327,0.0,5.0,14,0.00,,,0.00,meteohub,2013-05-11 14:04:00,
2013-05-11 09:09:00,59.2,48.9,30.04,NW,307,4.0,5.0,14,0.00,,,0.00,meteohub,2013-05-11 14:09:00,
2013-05-11 09:14:00,59.4,48.9,30.04,NNW,336,3.0,4.0,12,0.00,,,0.00,meteohub,2013-05-11 14:14:00,
2013-05-11 09:19:00,59.5,49.1,30.04,NW,307,4.0,6.0,12,0.00,,,0.00,meteohub,2013-05-11 14:19:00,
2013-05-11 09:24:00,59.7,49.1,30.04,WNW,299,4.0,6.0,12,0.00,,,0.00,meteohub,2013-05-11 14:24:00,
2013-05-11 09:29:00,60.1,49.3,30.04,WNW,296,3.0,6.0,12,0.00,,,0.00,meteohub,2013-05-11 14:29:00,
2013-05-11 09:34:00,60.4,49.3,30.04,NW,309,3.0,6.0,12,0.00,,,0.00,meteohub,2013-05-11 14:34:00,
2013-05-11 09:39:00,60.6,50.0,30.04,North,8,0.0,6.0,12,0.00,,,0.00,meteohub,2013-05-11 14:39:00,
2013-05-11 09:44:00,61.0,49.5,30.04,SW,227,3.0,6.0,11,0.00,,,0.00,meteohub,2013-05-11 14:44:00,
2013-05-11 09:49:00,61.2,49.5,30.04,SSW,194,4.0,6.0,11,0.00,,,0.00,meteohub,2013-05-11 14:49:00,
2013-05-11 09:54:00,61.2,49.5,30.04,South,191,2.0,5.0,11,0.00,,,0.00,meteohub,2013-05-11 14:54:00,
2013-05-11 10:00:00,61.5,49.6,30.04,South,183,4.0,5.0,11,0.00,,,0.00,meteohub,2013-05-11 15:00:00,
2013-05-11 10:05:00,61.9,49.6,30.04,West,259,3.0,5.0,11,0.00,,,0.00,meteohub,2013-05-11 15:05:00,
2013-05-11 10:10:00,62.2,49.6,30.04,NNW,329,2.0,5.0,11,0.00,,,0.00,meteohub,2013-05-11 15:10:00,
2013-05-11 10:15:00,62.8,49.8,30.04,WSW,250,3.0,4.0,11,0.00,,,0.00,meteohub,2013-05-11 15:15:00,
2013-05-11 10:20:00,63.1,49.8,30.04,SW,230,4.0,5.0,11,0.00,,,0.00,meteohub,2013-05-11 15:20:00,
2013-05-11 10:25:00,63.5,49.8,30.01,West,265,3.0,6.0,11,0.00,,,0.00,meteohub,2013-05-11 15:25:00,
2013-05-11 10:30:00,63.9,49.8,30.01,South,186,3.0,6.0,11,0.00,,,0.00,meteohub,2013-05-11 15:30:00,
2013-05-11 10:35:00,64.2,50.0,30.01,SSW,199,4.0,6.0,11,0.00,,,0.00,meteohub,2013-05-11 15:35:00,
2013-05-11 10:40:00,64.4,50.0,30.01,West,276,3.0,6.0,10,0.00,,,0.00,meteohub,2013-05-11 15:40:00,
2013-05-11 10:45:00,64.8,50.0,30.01,NNW,327,3.0,6.0,10,0.00,,,0.00,meteohub,2013-05-11 15:45:00,
2013-05-11 10:50:00,65.3,50.2,30.01,SW,219,3.0,6.0,10,0.00,,,0.00,meteohub,2013-05-11 15:50:00,
2013-05-11 10:55:00,65.7,50.2,30.01,West,278,5.0,6.0,10,0.00,,,0.00,meteohub,2013-05-11 15:55:00,
2013-05-11 11:00:00,66.0,50.2,30.01,NW,310,3.0,8.0,10,0.00,,,0.00,meteohub,2013-05-11 16:00:00,
2013-05-11 11:05:00,66.4,50.4,30.01,WNW,288,6.0,8.0,10,0.00,,,0.00,meteohub,2013-05-11 16:05:00,
2013-05-11 11:10:00,66.7,50.4,30.01,SSW,210,0.0,8.0,10,0.00,,,0.00,meteohub,2013-05-11 16:10:00,
2013-05-11 11:15:00,67.1,50.4,30.01,North,0,3.0,8.0,10,0.00,,,0.00,meteohub,2013-05-11 16:15:00,
2013-05-11 11:20:00,67.5,50.5,30.01,West,260,3.0,8.0,10,0.00,,,0.00,meteohub,2013-05-11 16:20:00,
2013-05-11 11:26:00,67.8,50.5,30.01,SSW,203,3.0,10.0,10,0.00,,,0.00,meteohub,2013-05-11 16:26:00,
2013-05-11 11:31:00,68.2,50.5,30.01,WNW,298,3.0,10.0,10,0.00,,,0.00,meteohub,2013-05-11 16:31:00,
2013-05-11 11:36:00,68.4,50.5,30.01,NNW,327,5.0,10.0,10,0.00,,,0.00,meteohub,2013-05-11 16:36:00,
2013-05-11 11:41:00,68.7,50.5,30.01,WSW,248,0.0,6.0,10,0.00,,,0.00,meteohub,2013-05-11 16:41:00,
2013-05-11 11:46:00,69.3,50.5,30.01,West,269,3.0,8.0,10,0.00,,,0.00,meteohub,2013-05-11 16:46:00,
2013-05-11 11:51:00,70.0,50.5,30.01,North,353,6.0,8.0,9,0.00,,,0.00,meteohub,2013-05-11 16:51:00,
2013-05-11 11:56:00,69.6,49.8,30.01,East,90,4.0,8.0,10,0.00,,,0.00,meteohub,2013-05-11 16:56:00,
2013-05-11 12:01:00,69.4,49.8,30.01,SW,234,4.0,8.0,10,0.00,,,0.00,meteohub,2013-05-11 17:01:00,
2013-05-11 12:06:00,70.0,49.8,30.01,SW,235,4.0,8.0,9,0.00,,,0.00,meteohub,2013-05-11 17:06:00,
2013-05-11 12:11:00,70.2,49.8,30.01,WNW,290,3.0,6.0,9,0.00,,,0.00,meteohub,2013-05-11 17:11:00,
2013-05-11 12:16:00,70.0,49.8,30.01,WNW,294,6.0,6.0,9,0.00,,,0.00,meteohub,2013-05-11 17:16:00,
2013-05-11 12:21:00,69.6,49.8,30.01,North,7,5.0,6.0,10,0.00,,,0.00,meteohub,2013-05-11 17:21:00,
2013-05-11 12:26:00,70.0,49.8,30.01,SSW,205,6.0,8.0,9,0.00,,,0.00,meteohub,2013-05-11 17:26:00,
2013-05-11 12:31:00,70.2,50.0,30.01,SSE,163,5.0,9.0,9,0.00,,,0.00,meteohub,2013-05-11 17:31:00,
2013-05-11 12:37:00,70.7,50.2,30.01,SW,226,8.0,9.0,9,0.00,,,0.00,meteohub,2013-05-11 17:37:00,
2013-05-11 12:42:00,70.3,50.2,30.01,WNW,300,3.0,10.0,9,0.00,,,0.00,meteohub,2013-05-11 17:42:00,
2013-05-11 12:47:00,70.0,50.2,30.01,NW,310,4.0,10.0,9,0.00,,,0.00,meteohub,2013-05-11 17:47:00,
2013-05-11 12:52:00,69.6,49.6,30.01,WSW,245,5.0,10.0,10,0.00,,,0.00,meteohub,2013-05-11 17:52:00,
2013-05-11 12:57:00,69.4,49.8,30.01,North,353,5.0,8.0,10,0.00,,,0.00,meteohub,2013-05-11 17:57:00,
2013-05-11 13:02:00,69.4,50.4,30.01,North,353,5.0,8.0,10,0.00,,,0.00,meteohub,2013-05-11 18:02:00,
2013-05-11 13:07:00,69.6,50.0,30.01,NNE,23,5.0,8.0,10,0.00,,,0.00,meteohub,2013-05-11 18:07:00,
2013-05-11 13:12:00,70.0,50.0,29.98,NW,322,5.0,11.0,9,0.00,,,0.00,meteohub,2013-05-11 18:12:00,
2013-05-11 13:17:00,70.0,50.0,29.98,North,8,6.0,11.0,9,0.00,,,0.00,meteohub,2013-05-11 18:17:00,
2013-05-11 13:22:00,69.4,50.0,29.98,NNW,328,2.0,11.0,10,0.00,,,0.00,meteohub,2013-05-11 18:22:00,
2013-05-11 13:27:00,69.1,50.0,30.01,North,353,3.0,11.0,10,0.00,,,0.00,meteohub,2013-05-11 18:27:00,
2013-05-11 13:32:00,69.1,50.0,30.01,NNE,33,11.0,11.0,10,0.00,,,0.00,meteohub,2013-05-11 18:32:00,
2013-05-11 13:37:00,68.9,49.3,30.01,North,10,6.0,11.0,10,0.00,,,0.00,meteohub,2013-05-11 18:37:00,
2013-05-11 13:42:00,68.4,49.1,30.01,North,357,8.0,11.0,10,0.00,,,0.00,meteohub,2013-05-11 18:42:00,
2013-05-11 13:48:00,68.2,49.3,30.01,NNE,14,8.0,12.0,10,0.00,,,0.00,meteohub,2013-05-11 18:48:00,
2013-05-11 13:53:00,68.5,49.3,30.01,NNW,343,13.0,13.0,10,0.00,,,0.00,meteohub,2013-05-11 18:53:00,
2013-05-11 13:58:00,68.9,48.6,30.01,North,11,6.0,12.0,10,0.00,,,0.00,meteohub,2013-05-11 18:58:00,
2013-05-11 14:03:00,69.6,48.6,30.01,North,353,11.0,13.0,10,0.00,,,0.00,meteohub,2013-05-11 19:03:00,
2013-05-11 14:08:00,69.8,48.6,30.01,NW,312,8.0,13.0,9,0.00,,,0.00,meteohub,2013-05-11 19:08:00,
2013-05-11 14:13:00,70.0,48.7,30.01,NW,308,6.0,13.0,9,0.00,,,0.00,meteohub,2013-05-11 19:13:00,
2013-05-11 14:18:00,70.3,48.7,30.01,NW,315,8.0,15.0,9,0.00,,,0.00,meteohub,2013-05-11 19:18:00,
2013-05-11 14:23:00,70.0,48.9,30.01,NNW,330,5.0,15.0,9,0.00,,,0.00,meteohub,2013-05-11 19:23:00,
2013-05-11 14:28:00,69.8,48.9,30.01,North,0,10.0,13.0,9,0.00,,,0.00,meteohub,2013-05-11 19:28:00,
2013-05-11 14:33:00,69.8,48.9,30.01,North,353,8.0,13.0,9,0.00,,,0.00,meteohub,2013-05-11 19:33:00,
2013-05-11 14:38:00,69.1,48.0,30.01,West,271,8.0,11.0,10,0.00,,,0.00,meteohub,2013-05-11 19:38:00,
2013-05-11 14:43:00,68.9,48.0,30.01,NNE,25,9.0,11.0,10,0.00,,,0.00,meteohub,2013-05-11 19:43:00,
2013-05-11 14:48:00,68.9,47.5,30.01,NE,36,8.0,13.0,10,0.00,,,0.00,meteohub,2013-05-11 19:48:00,
2013-05-11 14:53:00,69.1,47.7,30.01,North,0,6.0,15.0,10,0.00,,,0.00,meteohub,2013-05-11 19:53:00,
2013-05-11 14:58:00,69.4,48.2,30.01,NNE,16,8.0,15.0,10,0.00,,,0.00,meteohub,2013-05-11 19:58:00,
2013-05-11 15:03:00,69.6,47.7,30.01,North,7,8.0,15.0,10,0.00,,,0.00,meteohub,2013-05-11 20:03:00,
2013-05-11 15:09:00,69.6,46.9,30.01,NW,304,8.0,11.0,10,0.00,,,0.00,meteohub,2013-05-11 20:09:00,
2013-05-11 15:14:00,69.6,46.2,30.01,NNW,338,14.0,14.0,10,0.00,,,0.00,meteohub,2013-05-11 20:14:00,
2013-05-11 15:19:00,69.6,45.7,30.01,NNE,27,6.0,14.0,10,0.00,,,0.00,meteohub,2013-05-11 20:19:00,
2013-05-11 15:24:00,69.4,45.0,30.01,WSW,244,4.0,15.0,10,0.00,,,0.00,meteohub,2013-05-11 20:24:00,
2013-05-11 15:29:00,69.4,45.0,30.01,NNE,30,6.0,15.0,10,0.00,,,0.00,meteohub,2013-05-11 20:29:00,
2013-05-11 15:34:00,69.8,44.2,30.01,NNW,348,5.0,15.0,9,0.00,,,0.00,meteohub,2013-05-11 20:34:00,
2013-05-11 15:39:00,69.8,44.2,30.04,NNE,13,5.0,15.0,9,0.00,,,0.00,meteohub,2013-05-11 20:39:00,
2013-05-11 15:44:00,69.8,43.5,30.04,North,353,8.0,15.0,9,0.00,,,0.00,meteohub,2013-05-11 20:44:00,
2013-05-11 15:49:00,69.4,43.5,30.04,WNW,293,11.0,12.0,10,0.00,,,0.00,meteohub,2013-05-11 20:49:00,
2013-05-11 15:54:00,69.1,42.6,30.04,NNW,341,6.0,14.0,10,0.00,,,0.00,meteohub,2013-05-11 20:54:00,
2013-05-11 15:59:00,68.9,42.6,30.04,NNE,28,6.0,14.0,10,0.00,,,0.00,meteohub,2013-05-11 20:59:00,
2013-05-11 16:04:00,68.9,42.6,30.04,NNW,346,8.0,14.0,10,0.00,,,0.00,meteohub,2013-05-11 21:04:00,
2013-05-11 16:09:00,68.5,41.7,30.04,North,353,8.0,13.0,10,0.00,,,0.00,meteohub,2013-05-11 21:09:00,
2013-05-11 16:14:00,68.7,41.7,30.04,NNW,342,9.0,13.0,10,0.00,,,0.00,meteohub,2013-05-11 21:14:00,
2013-05-11 16:19:00,68.9,41.7,30.04,NW,310,6.0,15.0,10,0.00,,,0.00,meteohub,2013-05-11 21:19:00,
2013-05-11 16:25:00,68.5,41.7,30.04,North,10,9.0,15.0,10,0.00,,,0.00,meteohub,2013-05-11 21:25:00,
2013-05-11 16:30:00,68.2,41.7,30.04,NW,312,6.0,15.0,10,0.00,,,0.00,meteohub,2013-05-11 21:30:00,
2013-05-11 16:35:00,68.2,41.7,30.04,North,357,8.0,15.0,10,0.00,,,0.00,meteohub,2013-05-11 21:35:00,
2013-05-11 16:40:00,68.4,41.7,30.04,NNW,327,11.0,15.0,10,0.00,,,0.00,meteohub,2013-05-11 21:40:00,
2013-05-11 16:45:00,68.2,41.7,30.04,NNW,344,6.0,11.0,10,0.00,,,0.00,meteohub,2013-05-11 21:45:00,
2013-05-11 16:50:00,67.8,41.9,30.04,NW,311,7.0,15.0,10,0.00,,,0.00,meteohub,2013-05-11 21:50:00,
2013-05-11 16:55:00,67.6,42.1,30.04,NNE,28,6.0,15.0,10,0.00,,,0.00,meteohub,2013-05-11 21:55:00,
2013-05-11 17:00:00,67.5,42.1,30.04,NNW,341,13.0,15.0,10,0.00,,,0.00,meteohub,2013-05-11 22:00:00,
2013-05-11 17:05:00,66.9,42.1,30.04,West,280,9.0,17.0,10,0.00,,,0.00,meteohub,2013-05-11 22:05:00,
2013-05-11 17:10:00,66.7,42.1,30.06,NNW,344,9.0,17.0,10,0.00,,,0.00,meteohub,2013-05-11 22:10:00,
2013-05-11 17:15:00,66.6,41.9,30.06,NNW,335,10.0,17.0,10,0.00,,,0.00,meteohub,2013-05-11 22:15:00,
2013-05-11 17:20:00,66.4,41.9,30.06,North,2,12.0,15.0,7,0.00,,,0.00,meteohub,2013-05-11 22:20:00,
2013-05-11 17:25:00,66.2,41.9,30.06,North,353,8.0,13.0,7,0.00,,,0.00,meteohub,2013-05-11 22:25:00,
2013-05-11 17:30:00,66.2,41.9,30.06,North,10,6.0,13.0,7,0.00,,,0.00,meteohub,2013-05-11 22:30:00,
2013-05-11 17:35:00,66.2,42.1,30.06,NNW,346,6.0,13.0,7,0.00,,,0.00,meteohub,2013-05-11 22:35:00,
2013-05-11 17:40:00,65.8,41.9,30.06,WSW,248,8.0,13.0,8,0.00,,,0.00,meteohub,2013-05-11 22:40:00,
2013-05-11 17:46:00,65.5,41.2,30.06,NNE,14,6.0,14.0,8,0.00,,,0.00,meteohub,2013-05-11 22:46:00,
2013-05-11 17:51:00,65.3,41.2,30.06,WNW,295,8.0,14.0,8,0.00,,,0.00,meteohub,2013-05-11 22:51:00,
2013-05-11 17:56:00,65.1,41.2,30.06,WNW,300,7.0,14.0,8,0.00,,,0.00,meteohub,2013-05-11 22:56:00,
2013-05-11 18:01:00,64.9,41.2,30.06,NNE,30,6.0,11.0,8,0.00,,,0.00,meteohub,2013-05-11 23:01:00,
2013-05-11 18:06:00,64.9,41.2,30.06,NNW,334,10.0,13.0,8,0.00,,,0.00,meteohub,2013-05-11 23:06:00,
2013-05-11 18:11:00,64.6,41.2,30.06,NNW,341,11.0,13.0,8,0.00,,,0.00,meteohub,2013-05-11 23:11:00,
2013-05-11 18:16:00,64.4,41.2,30.06,North,3,6.0,11.0,8,0.00,,,0.00,meteohub,2013-05-11 23:16:00,
2013-05-11 18:21:00,64.2,41.2,30.06,NE,36,8.0,11.0,8,0.00,,,0.00,meteohub,2013-05-11 23:21:00,
2013-05-11 18:26:00,63.9,41.2,30.06,NW,316,4.0,11.0,8,0.00,,,0.00,meteohub,2013-05-11 23:26:00,
2013-05-11 18:31:00,63.7,42.1,30.06,North,5,13.0,13.0,8,0.00,,,0.00,meteohub,2013-05-11 23:31:00,
2013-05-11 18:36:00,63.3,42.1,30.06,North,1,5.0,13.0,8,0.00,,,0.00,meteohub,2013-05-11 23:36:00,
2013-05-11 18:41:00,63.0,42.1,30.06,NNE,28,5.0,13.0,8,0.00,,,0.00,meteohub,2013-05-11 23:41:00,
2013-05-11 18:46:00,62.8,42.1,30.06,NNE,16,4.0,13.0,8,0.00,,,0.00,meteohub,2013-05-11 23:46:00,
2013-05-11 18:51:00,62.2,42.1,30.06,North,6,6.0,10.0,9,0.00,,,0.00,meteohub,2013-05-11 23:51:00,
2013-05-11 18:56:00,61.9,42.1,30.09,NNW,333,9.0,10.0,9,0.00,,,0.00,meteohub,2013-05-11 23:56:00,
2013-05-11 19:01:00,61.5,42.1,30.09,North,349,5.0,13.0,9,0.00,,,0.00,meteohub,2013-05-12 00:01:00,
2013-05-11 19:07:00,61.2,42.1,30.09,North,353,6.0,13.0,9,0.00,,,0.00,meteohub,2013-05-12 00:07:00,
2013-05-11 19:12:00,61.0,42.1,30.09,North,10,4.0,13.0,9,0.00,,,0.00,meteohub,2013-05-12 00:12:00,
2013-05-11 19:17:00,60.6,41.9,30.09,North,9,6.0,11.0,9,0.00,,,0.00,meteohub,2013-05-12 00:17:00,
2013-05-11 19:22:00,60.4,42.6,30.09,NNE,28,6.0,11.0,9,0.00,,,0.00,meteohub,2013-05-12 00:22:00,
2013-05-11 19:27:00,60.1,42.6,30.09,NNE,17,5.0,12.0,9,0.00,,,0.00,meteohub,2013-05-12 00:27:00,
2013-05-11 19:32:00,60.1,42.6,30.09,NNE,24,9.0,12.0,9,0.00,,,0.00,meteohub,2013-05-12 00:32:00,
2013-05-11 19:37:00,59.7,42.6,30.09,North,357,8.0,12.0,9,0.00,,,0.00,meteohub,2013-05-12 00:37:00,
2013-05-11 19:42:00,59.5,42.6,30.09,North,0,9.0,12.0,9,0.00,,,0.00,meteohub,2013-05-12 00:42:00,
2013-05-11 19:47:00,59.4,42.4,30.09,North,11,7.0,10.0,9,0.00,,,0.00,meteohub,2013-05-12 00:47:00,
2013-05-11 19:52:00,59.2,42.4,30.09,North,0,8.0,9.0,9,0.00,,,0.00,meteohub,2013-05-12 00:52:00,
2013-05-11 19:57:00,59.0,42.4,30.09,North,353,7.0,10.0,9,0.00,,,0.00,meteohub,2013-05-12 00:57:00,
2013-05-11 20:02:00,58.8,42.3,30.09,North,6,5.0,10.0,9,0.00,,,0.00,meteohub,2013-05-12 01:02:00,
2013-05-11 20:07:00,58.6,42.3,30.09,NNW,343,3.0,9.0,9,0.00,,,0.00,meteohub,2013-05-12 01:07:00,
2013-05-11 20:12:00,58.3,42.3,30.09,NE,49,4.0,8.0,9,0.00,,,0.00,meteohub,2013-05-12 01:12:00,
2013-05-11 20:17:00,58.1,42.1,30.09,NNE,27,5.0,8.0,9,0.00,,,0.00,meteohub,2013-05-12 01:17:00,
2013-05-11 20:22:00,57.9,42.1,30.09,NNW,343,4.0,7.0,9,0.00,,,0.00,meteohub,2013-05-12 01:22:00,
2013-05-11 20:28:00,57.9,42.3,30.09,NNE,20,4.0,8.0,9,0.00,,,0.00,meteohub,2013-05-12 01:28:00,
2013-05-11 20:33:00,57.9,42.3,30.09,North,353,4.0,8.0,9,0.00,,,0.00,meteohub,2013-05-12 01:33:00,
2013-05-11 20:38:00,57.9,43.0,30.09,North,0,4.0,9.0,9,0.00,,,0.00,meteohub,2013-05-12 01:38:00,
2013-05-11 20:43:00,57.9,43.0,30.09,North,0,4.0,9.0,9,0.00,,,0.00,meteohub,2013-05-12 01:43:00,
2013-05-11 20:48:00,57.6,43.0,30.09,North,0,3.0,9.0,9,0.00,,,0.00,meteohub,2013-05-12 01:48:00,
2013-05-11 20:53:00,57.4,43.0,30.09,NW,310,4.0,9.0,9,0.00,,,0.00,meteohub,2013-05-12 01:53:00,
2013-05-11 20:58:00,57.2,43.0,30.12,NNE,24,3.0,8.0,9,0.00,,,0.00,meteohub,2013-05-12 01:58:00,
2013-05-11 21:03:00,57.0,43.0,30.12,NNE,29,0.0,8.0,10,0.00,,,0.00,meteohub,2013-05-12 02:03:00,
2013-05-11 21:08:00,56.7,43.0,30.12,North,5,5.0,6.0,10,0.00,,,0.00,meteohub,2013-05-12 02:08:00,
2013-05-11 21:13:00,56.5,43.0,30.12,North,0,0.0,6.0,10,0.00,,,0.00,meteohub,2013-05-12 02:13:00,
2013-05-11 21:18:00,56.3,43.7,30.12,North,357,4.0,5.0,10,0.00,,,0.00,meteohub,2013-05-12 02:18:00,
2013-05-11 21:23:00,56.1,43.7,30.12,North,10,3.0,5.0,10,0.00,,,0.00,meteohub,2013-05-12 02:23:00,
2013-05-11 21:28:00,55.9,43.7,30.12,North,7,5.0,5.0,10,0.00,,,0.00,meteohub,2013-05-12 02:28:00,
2013-05-11 21:33:00,56.1,43.7,30.12,NNW,343,3.0,5.0,10,0.00,,,0.00,meteohub,2013-05-12 02:33:00,
2013-05-11 21:38:00,56.1,43.7,30.12,NNW,342,5.0,5.0,10,0.00,,,0.00,meteohub,2013-05-12 02:38:00,
2013-05-11 21:43:00,56.3,43.7,30.12,North,353,4.0,6.0,10,0.00,,,0.00,meteohub,2013-05-12 02:43:00,
2013-05-11 21:48:00,56.3,43.7,30.12,WNW,288,4.0,9.0,10,0.00,,,0.00,meteohub,2013-05-12 02:48:00,
2013-05-11 21:54:00,56.1,44.4,30.12,NNE,14,5.0,9.0,10,0.00,,,0.00,meteohub,2013-05-12 02:54:00,
2013-05-11 21:59:00,56.3,44.4,30.15,NNE,28,8.0,9.0,10,0.00,,,0.00,meteohub,2013-05-12 02:59:00,
2013-05-11 22:04:00,56.1,44.6,30.15,North,0,8.0,10.0,10,0.00,,,0.00,meteohub,2013-05-12 03:04:00,
2013-05-11 22:09:00,56.1,44.6,30.15,NNW,338,10.0,10.0,10,0.00,,,0.00,meteohub,2013-05-12 03:09:00,
2013-05-11 22:14:00,56.1,44.4,30.15,North,0,8.0,10.0,10,0.00,,,0.00,meteohub,2013-05-12 03:14:00,
2013-05-11 22:19:00,55.9,44.4,30.15,NNE,16,8.0,10.0,10,0.00,,,0.00,meteohub,2013-05-12 03:19:00,
2013-05-11 22:24:00,55.9,44.4,30.15,North,0,6.0,10.0,10,0.00,,,0.00,meteohub,2013-05-12 03:24:00,
2013-05-11 22:29:00,55.8,44.4,30.15,North,11,4.0,9.0,10,0.00,,,0.00,meteohub,2013-05-12 03:29:00,
2013-05-11 22:34:00,55.2,44.4,30.15,NNW,339,2.0,9.0,10,0.00,,,0.00,meteohub,2013-05-12 03:34:00,
2013-05-11 22:39:00,54.7,44.4,30.15,NNW,331,4.0,8.0,10,0.00,,,0.00,meteohub,2013-05-12 03:39:00,
2013-05-11 22:44:00,54.5,44.4,30.15,North,7,6.0,6.0,10,0.00,,,0.00,meteohub,2013-05-12 03:44:00,
2013-05-11 22:49:00,54.7,44.4,30.15,North,350,3.0,9.0,10,0.00,,,0.00,meteohub,2013-05-12 03:49:00,
2013-05-11 22:54:00,54.7,45.1,30.15,NNE,14,3.0,9.0,10,0.00,,,0.00,meteohub,2013-05-12 03:54:00,
2013-05-11 22:59:00,54.5,45.1,30.15,NNW,345,2.0,9.0,10,0.00,,,0.00,meteohub,2013-05-12 03:59:00,
2013-05-11 23:01:00,54.5,45.1,30.15,North,353,3.0,8.0,10,0.00,,,0.00,meteohub,2013-05-12 04:01:00,
2013-05-11 23:02:00,54.3,45.1,30.15,North,357,4.0,8.0,10,0.00,,,0.00,meteohub,2013-05-12 04:02:00,
2013-05-11 23:07:00,53.8,45.1,30.15,North,0,3.0,7.0,10,0.00,,,0.00,meteohub,2013-05-12 04:07:00,
2013-05-11 23:12:00,53.6,45.1,30.15,North,0,4.0,6.0,10,0.00,,,0.00,meteohub,2013-05-12 04:12:00,
2013-05-11 23:18:00,53.6,45.0,30.15,North,6,4.0,6.0,10,0.00,,,0.00,meteohub,2013-05-12 04:18:00,
2013-05-11 23:23:00,53.8,45.0,30.15,WNW,292,5.0,7.0,10,0.00,,,0.00,meteohub,2013-05-12 04:23:00,
2013-05-11 23:28:00,53.8,45.0,30.15,North,3,4.0,7.0,10,0.00,,,0.00,meteohub,2013-05-12 04:28:00,
2013-05-11 23:33:00,53.4,45.0,30.15,North,0,3.0,7.0,11,0.00,,,0.00,meteohub,2013-05-12 04:33:00,
2013-05-11 23:38:00,53.2,44.8,30.15,NNW,343,4.0,6.0,11,0.00,,,0.00,meteohub,2013-05-12 04:38:00,
2013-05-11 23:43:00,53.1,44.8,30.15,North,353,4.0,6.0,11,0.00,,,0.00,meteohub,2013-05-12 04:43:00,
2013-05-11 23:48:00,52.7,44.8,30.15,North,353,3.0,6.0,11,0.00,,,0.00,meteohub,2013-05-12 04:48:00,
2013-05-11 23:53:00,52.5,44.8,30.15,North,353,3.0,5.0,11,0.00,,,0.00,meteohub,2013-05-12 04:53:00,
2013-05-11 23:58:00,52.3,44.8,30.15,NW,316,4.0,5.0,11,0.00,,,0.00,meteohub,2013-05-12 04:58:00,